Nome, AK

6:38 AM AKDT on August 24, 2016 (GMT -0800)
Nome

Weather History for PAOM - December, 2013

Change the Weather History Date:

Sunday, December 22, 2013

  Actual Average Record
Temperature  
Mean Temperature 4 °F -  
Max Temperature 9 °F 16 °F 39 °F (1985)
Min Temperature -2 °F - -32 °F (1994)
Degree Days  
Heating Degree Days 61 57  
Month to date heating degree days 1013 1202  
Since 1 July heating degree days 4815 5300  
Cooling Degree Days 0    
Month to date cooling degree days 0  
Year to date cooling degree days 7  
Moisture  
Dew Point 2 °F    
Average Humidity 0    
Maximum Humidity 0    
Minimum Humidity 0    
Precipitation  
Precipitation 0.01 in 0.03 in 0.28 in (1962)
Month to date precipitation 1.98 0.76  
Year to date precipitation 22.30 16.49  
Snow  
Snow 0.60 in 0.50 in 7.80 in (1962)
Month to date snowfall 18.1 10.2  
Since 1 July snowfall 32.7 27.5  
Snow Depth 16.00 in    
Sea Level Pressure  
Sea Level Pressure 29.81 in    
Wind  
Wind Speed 6 mph (NW)    
Max Wind Speed 17 mph    
Max Gust Speed 22 mph    
Visibility 8 miles    
Events Snow    
T = Trace of Precipitation, MM = Missing Value Source: NWS Daily Summary

Daily Weather History Graph

Daily Weather History Graph

Search for Another Location

Airport or City:

Trip Planner

Search our weather history database for the weather conditions in past years. The results will help you decide how hot, cold, wet, or windy it might be!

Date:

Astronomy

Dec. 22, 2013 Rise Set
Actual Time 12:03 PM AKST 3:57 PM AKST
Civil Twilight 10:41 AM AKST 5:20 PM AKST
Nautical Twilight 9:30 AM AKST 6:30 PM AKST
Astronomical Twilight 8:29 AM AKST 7:31 PM AKST
Moon 11:38 PM AKST (12/22) 12:58 PM AKST (12/22)
Length of Visible Light 6h 39m
Length of Day
3h 54m
Waning Gibbous, 75% of the Moon is Illuminated
Dec 22
Waning Gibbous
Dec 25
Last Quarter
Jan 1
New
Jan 7
First Quarter
Jan 15
Full

Hourly Weather History & Observations

Time (AKST) Temp. Windchill Dew Point Humidity Pressure Visibility Wind Dir Wind Speed Gust Speed Precip Events Conditions
12:46 AM 8.6 °F -7.0 °F 5.0 °F 85% 29.73 in 10.0 mi NW 12.7 mph - 0.00 in   Overcast
12:53 AM 9.0 °F -5.9 °F 3.9 °F 80% 29.73 in 10.0 mi NW 11.5 mph - 0.00 in   Overcast
1:53 AM 8.1 °F -7.0 °F 3.9 °F 83% 29.75 in 9.0 mi NW 11.5 mph - 0.00 in   Overcast
2:53 AM 8.1 °F -4.3 °F 1.9 °F 76% 29.76 in 10.0 mi NW 8.1 mph - N/A   Overcast
3:34 AM 8.6 °F -3.7 °F 1.4 °F 73% 29.76 in 8.0 mi WNW 8.1 mph - 0.00 in Snow Light Snow
3:53 AM 8.1 °F -3.2 °F 1.9 °F 76% 29.77 in 8.0 mi WNW 6.9 mph - 0.00 in Snow Light Snow
4:51 AM 8.6 °F -3.7 °F 3.2 °F 79% 29.77 in 9.0 mi NW 8.1 mph - 0.00 in   Overcast
4:53 AM 8.1 °F -3.2 °F 3.0 °F 80% 29.77 in 9.0 mi NW 6.9 mph - 0.00 in   Overcast
5:34 AM 8.6 °F -4.7 °F 3.2 °F 79% 29.79 in 3.0 mi WNW 9.2 mph - 0.00 in Snow Light Snow
5:53 AM 7.0 °F -6.6 °F 3.0 °F 84% 29.79 in 6.0 mi NW 9.2 mph - 0.00 in   Overcast
6:33 AM 3.2 °F -7.8 °F -0.4 °F 85% 29.79 in 10.0 mi NW 5.8 mph - N/A   Scattered Clouds
6:53 AM 1.9 °F -9.2 °F -2.0 °F 83% 29.80 in 10.0 mi NNW 5.8 mph - N/A   Partly Cloudy
7:53 AM 1.0 °F -8.7 °F -2.9 °F 83% 29.81 in 10.0 mi NNW 4.6 mph - N/A   Partly Cloudy
8:53 AM 1.9 °F - -2.0 °F 83% 29.81 in 10.0 mi Calm Calm - N/A   Overcast
9:53 AM 3.9 °F - -0.0 °F 84% 29.82 in 10.0 mi Calm Calm - N/A   Overcast
10:53 AM 6.1 °F - -0.0 °F 76% 29.82 in 10.0 mi Calm Calm - N/A   Overcast
11:53 AM 7.0 °F - 1.0 °F 77% 29.83 in 9.0 mi Calm Calm - N/A   Overcast
12:22 PM 6.8 °F - 3.2 °F 85% 29.83 in 2.0 mi Calm Calm - 0.00 in Snow Light Snow
12:30 PM 6.8 °F -0.1 °F 3.2 °F 85% 29.83 in 2.5 mi NNE 3.5 mph - 0.00 in Snow Light Snow
12:45 PM 5.0 °F -2.1 °F 3.2 °F 92% 29.83 in 4.0 mi NNE 3.5 mph - 0.00 in Snow Light Snow
12:51 PM 5.0 °F -2.1 °F 1.4 °F 85% 29.83 in 4.0 mi NE 3.5 mph - 0.00 in   Overcast
12:53 PM 6.1 °F -2.8 °F 1.9 °F 83% 29.84 in 4.0 mi NE 4.6 mph - 0.00 in   Overcast
1:53 PM 3.9 °F - 1.0 °F 88% 29.85 in 10.0 mi Calm Calm - N/A   Overcast
2:53 PM 5.0 °F -5.6 °F 1.9 °F 87% 29.83 in 10.0 mi East 5.8 mph - 0.00 in   Overcast
3:53 PM 6.1 °F -4.3 °F 1.9 °F 83% 29.82 in 9.0 mi NE 5.8 mph - N/A   Overcast
4:53 PM 7.0 °F - 3.9 °F 87% 29.80 in 4.0 mi Calm Calm - 0.00 in Snow Light Snow
5:53 PM 6.1 °F -10.9 °F 3.0 °F 87% 29.81 in 9.0 mi NW 13.8 mph 18.4 mph 0.00 in Snow Light Snow
6:04 PM 6.8 °F -7.8 °F 3.2 °F 85% 29.81 in 3.0 mi NW 10.4 mph - 0.00 in Snow Light Snow
6:51 PM 8.6 °F -5.5 °F 3.2 °F 79% 29.83 in 4.0 mi NW 10.4 mph - 0.01 in Snow Light Snow
6:53 PM 8.1 °F -5.3 °F 3.9 °F 83% 29.83 in 4.0 mi NW 9.2 mph - 0.01 in Snow Light Snow
7:51 PM 6.8 °F -8.6 °F 1.4 °F 79% 29.84 in 10.0 mi WNW 11.5 mph - 0.00 in   Overcast
7:53 PM 7.0 °F -9.1 °F 1.0 °F 77% 29.84 in 10.0 mi WNW 12.7 mph - 0.00 in   Mostly Cloudy
8:53 PM 5.0 °F -5.6 °F 1.0 °F 84% 29.86 in 8.0 mi WNW 5.8 mph - N/A   Overcast
9:53 PM 8.1 °F -8.4 °F 3.0 °F 80% 29.85 in 5.0 mi WNW 13.8 mph - 0.00 in Snow Light Snow
10:53 PM 8.1 °F -6.2 °F 3.9 °F 83% 29.87 in 5.0 mi WNW 10.4 mph - 0.00 in Snow Light Snow
11:53 PM 9.0 °F -2.2 °F 3.9 °F 80% 29.89 in 7.0 mi NW 6.9 mph - 0.00 in   Overcast